Location: Brantley
(31.5822°N, 86.2569°W)
Time: 21:22:53
(UTC+00:00)

Injun/Solrad 3 - Pass Details

Date: 20 February 2026
Orbit: 872 x 984 km, 66.8° (Epoch: 6 March)

Event Time Altitude Azimuth Distance (km) Brightness Sun altitude
Rises 23:51:25 0° 356° (N) 3,587 10.9 -4.0°
Reaches altitude 10° 23:56:03 10° 28° (NNE) 2,669 10.0 -5.0°
Maximum altitude 23:58:09 12° 48° (NE) 2,557 9.7 -5.4°
Drops below altitude 10° 00:00:16 10° 68° (ENE) 2,691 9.7 -5.9°
Enters shadow 00:01:54 - 81° (E) 2,944 9.8 -6.2°
Sets 00:04:58 0° 99° (E) 3,657 - -6.9°
